Time,TemperatureF,DewpointF,PressureIn,WindDirection,WindDirectionDegrees,WindSpeedMPH,WindSpeedGustMPH,Humidity,HourlyPrecipIn,Conditions,Clouds,dailyrainin,SoftwareType,DateUTC
2013-03-23 00:00:00,62.5,59.2,29.73,East,86,0.0,9.0,89,0.00,,,0.05,Wunderground v.1.15,2013-03-23 05:00:00,
2013-03-23 00:06:00,62.5,59.2,29.73,NE,36,0.0,9.0,89,0.00,,,0.05,Wunderground v.1.15,2013-03-23 05:06:00,
2013-03-23 00:10:00,62.4,59.1,29.73,NE,36,0.0,7.0,89,0.00,,,0.05,Wunderground v.1.15,2013-03-23 05:10:00,
2013-03-23 00:15:00,62.4,59.1,29.73,ESE,119,0.0,7.0,89,0.00,,,0.05,Wunderground v.1.15,2013-03-23 05:15:00,
2013-03-23 00:20:00,62.3,59.0,29.73,SE,126,0.0,7.0,89,0.00,,,0.05,Wunderground v.1.15,2013-03-23 05:20:00,
2013-03-23 00:25:00,62.3,59.0,29.73,SSE,148,0.0,7.0,89,0.00,,,0.05,Wunderground v.1.15,2013-03-23 05:25:00,
2013-03-23 00:30:00,62.3,59.0,29.73,SE,125,0.0,7.0,89,0.00,,,0.05,Wunderground v.1.15,2013-03-23 05:30:00,
2013-03-23 00:35:00,62.3,59.0,29.73,ESE,121,0.0,7.0,89,0.00,,,0.05,Wunderground v.1.15,2013-03-23 05:35:00,
2013-03-23 00:40:00,62.3,59.0,29.73,SSE,155,0.0,7.0,89,0.00,,,0.05,Wunderground v.1.15,2013-03-23 05:40:00,
2013-03-23 00:45:00,62.3,59.0,29.73,SE,146,0.0,7.0,89,0.00,,,0.05,Wunderground v.1.15,2013-03-23 05:45:00,
2013-03-23 00:50:00,62.3,59.0,29.73,SE,132,0.0,7.0,89,0.00,,,0.05,Wunderground v.1.15,2013-03-23 05:50:00,
2013-03-23 00:55:00,62.2,58.9,29.72,SSE,150,0.0,7.0,89,0.00,,,0.05,Wunderground v.1.15,2013-03-23 05:55:00,
2013-03-23 01:00:00,62.2,58.9,29.72,SSE,160,0.0,7.0,89,0.00,,,0.05,Wunderground v.1.15,2013-03-23 06:00:00,
2013-03-23 01:05:00,62.2,58.9,29.72,South,170,0.0,7.0,89,0.00,,,0.05,Wunderground v.1.15,2013-03-23 06:05:00,
2013-03-23 01:10:00,62.2,58.9,29.72,SSE,150,0.0,7.0,89,0.00,,,0.05,Wunderground v.1.15,2013-03-23 06:10:00,
2013-03-23 01:15:00,62.2,59.2,29.72,SE,137,1.0,7.0,90,0.00,,,0.05,Wunderground v.1.15,2013-03-23 06:15:00,
2013-03-23 01:20:00,62.2,59.2,29.72,ESE,116,1.0,1.0,90,0.00,,,0.05,Wunderground v.1.15,2013-03-23 06:20:00,
2013-03-23 01:25:00,62.2,59.2,29.72,SE,141,1.0,3.0,90,0.00,,,0.00,Wunderground v.1.15,2013-03-23 06:25:00,
2013-03-23 01:30:00,62.2,59.2,29.72,SE,134,1.0,7.0,90,0.00,,,0.00,Wunderground v.1.15,2013-03-23 06:30:00,
2013-03-23 01:35:00,62.2,59.2,29.72,SE,138,1.0,7.0,90,0.00,,,0.00,Wunderground v.1.15,2013-03-23 06:35:00,
2013-03-23 01:40:00,62.1,59.1,29.72,SE,137,1.0,1.0,90,0.00,,,0.00,Wunderground v.1.15,2013-03-23 06:40:00,
2013-03-23 01:45:00,62.1,59.1,29.72,SE,137,0.0,7.0,90,0.00,,,0.00,Wunderground v.1.15,2013-03-23 06:45:00,
2013-03-23 01:50:00,62.1,59.4,29.72,SSE,161,0.0,7.0,91,0.00,,,0.00,Wunderground v.1.15,2013-03-23 06:50:00,
2013-03-23 01:55:00,62.1,59.4,29.71,SSE,161,0.0,7.0,91,0.00,,,0.00,Wunderground v.1.15,2013-03-23 06:55:00,
2013-03-23 02:00:00,62.0,59.3,29.71,SSE,161,0.0,7.0,91,0.00,,,0.00,Wunderground v.1.15,2013-03-23 07:00:00,
2013-03-23 02:05:00,62.0,59.3,29.71,SSE,161,0.0,7.0,91,0.00,,,0.00,Wunderground v.1.15,2013-03-23 07:05:00,
2013-03-23 02:10:00,62.0,59.3,29.71,SSE,156,0.0,7.0,91,0.00,,,0.00,Wunderground v.1.15,2013-03-23 07:10:00,
2013-03-23 02:15:00,62.0,59.3,29.71,SSE,157,0.0,7.0,91,0.00,,,0.00,Wunderground v.1.15,2013-03-23 07:15:00,
2013-03-23 02:20:00,61.9,59.2,29.71,SSE,153,0.0,7.0,91,0.00,,,0.00,Wunderground v.1.15,2013-03-23 07:20:00,
2013-03-23 02:25:00,61.9,59.5,29.71,SE,146,1.0,7.0,92,0.00,,,0.00,Wunderground v.1.15,2013-03-23 07:25:00,
2013-03-23 02:30:00,61.8,59.5,29.71,SSE,161,1.0,1.0,92,0.00,,,0.00,Wunderground v.1.15,2013-03-23 07:30:00,
2013-03-23 02:35:00,61.8,59.5,29.71,SSE,161,0.0,7.0,92,0.00,,,0.00,Wunderground v.1.15,2013-03-23 07:35:00,
2013-03-23 02:40:00,61.8,59.5,29.70,SSE,161,0.0,7.0,92,0.00,,,0.00,Wunderground v.1.15,2013-03-23 07:40:00,
2013-03-23 02:45:00,61.7,59.7,29.70,SSE,161,0.0,7.0,93,0.00,,,0.00,Wunderground v.1.15,2013-03-23 07:45:00,
2013-03-23 02:50:00,61.7,59.7,29.70,SSE,161,0.0,7.0,93,0.00,,,0.00,Wunderground v.1.15,2013-03-23 07:50:00,
2013-03-23 02:55:00,61.6,59.6,29.70,SSE,161,0.0,7.0,93,0.00,,,0.00,Wunderground v.1.15,2013-03-23 07:55:00,
2013-03-23 03:00:00,61.6,59.6,29.70,SSE,161,0.0,7.0,93,0.00,,,0.00,Wunderground v.1.15,2013-03-23 08:00:00,
2013-03-23 03:05:00,61.6,59.6,29.70,SSE,161,0.0,7.0,93,0.00,,,0.00,Wunderground v.1.15,2013-03-23 08:05:00,
2013-03-23 03:10:00,61.5,59.5,29.69,SSE,161,0.0,7.0,93,0.00,,,0.00,Wunderground v.1.15,2013-03-23 08:10:00,
2013-03-23 03:15:00,61.5,59.5,29.69,SSE,161,0.0,7.0,93,0.00,,,0.00,Wunderground v.1.15,2013-03-23 08:15:00,
2013-03-23 03:20:00,61.5,59.8,29.69,SSE,161,0.0,7.0,94,0.00,,,0.00,Wunderground v.1.15,2013-03-23 08:20:00,
2013-03-23 03:25:00,61.5,59.8,29.69,SSE,161,0.0,7.0,94,0.00,,,0.00,Wunderground v.1.15,2013-03-23 08:25:00,
2013-03-23 03:30:00,61.5,59.8,29.69,SE,141,0.0,7.0,94,0.00,,,0.00,Wunderground v.1.15,2013-03-23 08:30:00,
2013-03-23 03:35:00,61.5,59.8,29.69,SE,141,0.0,7.0,94,0.00,,,0.00,Wunderground v.1.15,2013-03-23 08:35:00,
2013-03-23 03:40:00,61.4,59.7,29.68,SE,142,0.0,7.0,94,0.00,,,0.00,Wunderground v.1.15,2013-03-23 08:40:00,
2013-03-23 03:45:00,61.5,59.8,29.68,SSE,155,0.0,7.0,94,0.00,,,0.00,Wunderground v.1.15,2013-03-23 08:45:00,
2013-03-23 03:50:00,61.5,59.8,29.68,NNE,15,1.0,1.0,94,0.00,,,0.00,Wunderground v.1.15,2013-03-23 08:50:00,
2013-03-23 03:55:00,61.5,59.8,29.67,NNE,15,0.0,7.0,94,0.00,,,0.00,Wunderground v.1.15,2013-03-23 08:55:00,
2013-03-23 04:00:00,61.5,60.1,29.67,SE,146,0.0,7.0,95,0.00,,,0.00,Wunderground v.1.15,2013-03-23 09:00:00,
2013-03-23 04:05:00,61.6,60.2,29.67,SE,143,1.0,7.0,95,0.00,,,0.00,Wunderground v.1.15,2013-03-23 09:05:00,
2013-03-23 04:15:00,61.6,60.2,29.67,ESE,111,0.0,7.0,95,0.00,,,0.00,Wunderground v.1.15,2013-03-23 09:15:00,
2013-03-23 04:20:00,61.6,60.2,29.67,ESE,110,0.0,7.0,95,0.00,,,0.00,Wunderground v.1.15,2013-03-23 09:20:00,
2013-03-23 04:25:00,61.6,60.2,29.67,ESE,110,0.0,7.0,95,0.00,,,0.00,Wunderground v.1.15,2013-03-23 09:25:00,
2013-03-23 04:30:00,61.7,60.3,29.67,ESE,109,0.0,7.0,95,0.00,,,0.00,Wunderground v.1.15,2013-03-23 09:30:00,
2013-03-23 04:35:00,61.7,60.3,29.67,ESE,123,0.0,7.0,95,0.00,,,0.00,Wunderground v.1.15,2013-03-23 09:35:00,
2013-03-23 04:40:00,61.7,60.3,29.66,SE,133,0.0,7.0,95,0.00,,,0.00,Wunderground v.1.15,2013-03-23 09:40:00,
2013-03-23 04:45:00,61.7,60.3,29.66,SSE,148,0.0,7.0,95,0.00,,,0.00,Wunderground v.1.15,2013-03-23 09:45:00,
2013-03-23 04:50:00,61.7,60.3,29.66,SE,134,1.0,1.0,95,0.00,,,0.00,Wunderground v.1.15,2013-03-23 09:50:00,
2013-03-23 04:55:00,61.7,60.3,29.66,SE,134,0.0,7.0,95,0.00,,,0.00,Wunderground v.1.15,2013-03-23 09:55:00,
2013-03-23 05:00:00,61.7,60.3,29.66,SE,134,0.0,7.0,95,0.00,,,0.00,Wunderground v.1.15,2013-03-23 10:00:00,
2013-03-23 05:05:00,61.7,60.3,29.65,SE,133,0.0,7.0,95,0.00,,,0.00,Wunderground v.1.15,2013-03-23 10:05:00,
2013-03-23 05:15:00,61.7,60.3,29.65,SSE,153,0.0,5.0,95,0.00,,,0.00,Wunderground v.1.15,2013-03-23 10:15:00,
2013-03-23 05:20:00,61.6,60.2,29.65,SE,132,0.0,5.0,95,0.00,,,0.00,Wunderground v.1.15,2013-03-23 10:20:00,
2013-03-23 05:25:00,61.6,60.2,29.65,SE,130,0.0,5.0,95,0.00,,,0.00,Wunderground v.1.15,2013-03-23 10:25:00,
2013-03-23 05:30:00,61.6,60.2,29.65,SE,145,0.0,5.0,95,0.00,,,0.00,Wunderground v.1.15,2013-03-23 10:30:00,
2013-03-23 05:35:00,61.6,60.2,29.65,SE,133,0.0,5.0,95,0.00,,,0.00,Wunderground v.1.15,2013-03-23 10:35:00,
2013-03-23 05:40:00,61.6,60.2,29.65,SE,133,0.0,5.0,95,0.00,,,0.00,Wunderground v.1.15,2013-03-23 10:40:00,
2013-03-23 05:45:00,61.6,60.2,29.65,ESE,116,1.0,5.0,95,0.00,,,0.00,Wunderground v.1.15,2013-03-23 10:45:00,
2013-03-23 05:55:00,61.5,60.1,29.65,SE,145,0.0,4.0,95,0.00,,,0.00,Wunderground v.1.15,2013-03-23 10:55:00,
2013-03-23 06:00:00,61.5,60.1,29.65,SE,135,1.0,1.0,95,0.00,,,0.00,Wunderground v.1.15,2013-03-23 11:00:00,
2013-03-23 06:05:00,61.5,60.1,29.65,ESE,107,1.0,5.0,95,0.00,,,0.00,Wunderground v.1.15,2013-03-23 11:05:00,
2013-03-23 06:10:00,61.5,60.1,29.65,SE,138,1.0,1.0,95,0.00,,,0.00,Wunderground v.1.15,2013-03-23 11:10:00,
2013-03-23 06:15:00,61.4,60.0,29.65,SE,146,1.0,5.0,95,0.00,,,0.00,Wunderground v.1.15,2013-03-23 11:15:00,
2013-03-23 06:20:00,61.4,60.0,29.65,ENE,76,1.0,5.0,95,0.00,,,0.00,Wunderground v.1.15,2013-03-23 11:20:00,
2013-03-23 06:25:00,61.4,60.0,29.65,NE,48,1.0,5.0,95,0.00,,,0.00,Wunderground v.1.15,2013-03-23 11:25:00,
2013-03-23 06:30:00,61.4,60.0,29.65,NE,48,1.0,1.0,95,0.00,,,0.00,Wunderground v.1.15,2013-03-23 11:30:00,
2013-03-23 06:35:00,61.4,60.0,29.65,NE,48,0.0,5.0,95,0.00,,,0.00,Wunderground v.1.15,2013-03-23 11:35:00,
2013-03-23 06:40:00,61.4,60.0,29.65,NE,48,0.0,5.0,95,0.00,,,0.00,Wunderground v.1.15,2013-03-23 11:40:00,
2013-03-23 06:45:00,61.3,59.9,29.65,NE,47,0.0,5.0,95,0.00,,,0.00,Wunderground v.1.15,2013-03-23 11:45:00,
2013-03-23 06:50:00,61.4,60.0,29.65,NE,46,0.0,5.0,95,0.00,,,0.00,Wunderground v.1.15,2013-03-23 11:50:00,
2013-03-23 06:55:00,61.3,59.9,29.66,NE,46,0.0,5.0,95,0.00,,,0.00,Wunderground v.1.15,2013-03-23 11:55:00,
2013-03-23 07:00:00,61.4,60.0,29.66,NE,46,0.0,5.0,95,0.00,,,0.00,Wunderground v.1.15,2013-03-23 12:00:00,
2013-03-23 07:05:00,61.3,59.9,29.66,NE,46,0.0,5.0,95,0.00,,,0.00,Wunderground v.1.15,2013-03-23 12:05:00,
2013-03-23 07:10:00,61.3,59.9,29.66,NE,47,0.0,5.0,95,0.00,,,0.00,Wunderground v.1.15,2013-03-23 12:10:00,
2013-03-23 07:15:00,61.3,59.9,29.66,NE,46,0.0,5.0,95,0.00,,,0.00,Wunderground v.1.15,2013-03-23 12:15:00,
2013-03-23 07:20:00,61.3,59.9,29.66,NE,49,0.0,5.0,95,0.00,,,0.00,Wunderground v.1.15,2013-03-23 12:20:00,
2013-03-23 07:25:00,61.3,60.2,29.66,NE,49,0.0,5.0,96,0.00,,,0.00,Wunderground v.1.15,2013-03-23 12:25:00,
2013-03-23 07:30:00,61.4,60.2,29.66,NE,46,1.0,1.0,96,0.00,,,0.00,Wunderground v.1.15,2013-03-23 12:30:00,
2013-03-23 07:35:00,61.3,60.2,29.66,East,84,1.0,5.0,96,0.00,,,0.00,Wunderground v.1.15,2013-03-23 12:35:00,
2013-03-23 07:40:00,61.3,60.2,29.66,East,83,1.0,1.0,96,0.00,,,0.00,Wunderground v.1.15,2013-03-23 12:40:00,
2013-03-23 07:45:00,61.3,60.2,29.66,NE,38,1.0,5.0,96,0.00,,,0.00,Wunderground v.1.15,2013-03-23 12:45:00,
2013-03-23 07:50:00,61.3,60.2,29.66,NE,38,0.0,5.0,96,0.00,,,0.00,Wunderground v.1.15,2013-03-23 12:50:00,
2013-03-23 07:55:00,61.3,60.2,29.68,NE,40,1.0,5.0,96,0.00,,,0.00,Wunderground v.1.15,2013-03-23 12:55:00,
2013-03-23 08:00:00,61.3,60.2,29.68,NE,42,1.0,5.0,96,0.00,,,0.00,Wunderground v.1.15,2013-03-23 13:00:00,
2013-03-23 08:05:00,61.3,60.2,29.68,NE,41,1.0,5.0,96,0.00,,,0.00,Wunderground v.1.15,2013-03-23 13:05:00,
2013-03-23 08:10:00,61.3,60.2,29.68,NE,42,2.0,5.0,96,0.00,,,0.00,Wunderground v.1.15,2013-03-23 13:10:00,
2013-03-23 08:15:00,61.3,60.2,29.68,NE,41,1.0,5.0,96,0.00,,,0.00,Wunderground v.1.15,2013-03-23 13:15:00,
2013-03-23 08:20:00,61.3,60.2,29.68,NE,42,1.0,5.0,96,0.00,,,0.00,Wunderground v.1.15,2013-03-23 13:20:00,
2013-03-23 08:25:00,61.3,60.2,29.69,NE,52,2.0,5.0,96,0.00,,,0.00,Wunderground v.1.15,2013-03-23 13:25:00,
2013-03-23 08:30:00,61.2,60.1,29.69,NE,37,2.0,5.0,96,0.00,,,0.00,Wunderground v.1.15,2013-03-23 13:30:00,
2013-03-23 08:35:00,61.2,60.1,29.69,NE,44,3.0,5.0,96,0.00,,,0.00,Wunderground v.1.15,2013-03-23 13:35:00,
2013-03-23 08:40:00,61.2,60.1,29.69,NNE,16,3.0,5.0,96,0.00,,,0.00,Wunderground v.1.15,2013-03-23 13:40:00,
2013-03-23 08:45:00,61.2,60.1,29.69,NE,45,3.0,5.0,96,0.00,,,0.00,Wunderground v.1.15,2013-03-23 13:45:00,
2013-03-23 08:50:00,61.2,60.1,29.69,NE,49,3.0,3.0,96,0.00,,,0.00,Wunderground v.1.15,2013-03-23 13:50:00,
2013-03-23 08:55:00,61.2,60.1,29.69,NNE,24,2.0,5.0,96,0.00,,,0.00,Wunderground v.1.15,2013-03-23 13:55:00,
2013-03-23 09:00:00,61.2,60.1,29.69,NE,42,2.0,5.0,96,0.00,,,0.00,Wunderground v.1.15,2013-03-23 14:00:00,
2013-03-23 09:05:00,61.2,60.1,29.69,NE,42,3.0,5.0,96,0.00,,,0.00,Wunderground v.1.15,2013-03-23 14:05:00,
2013-03-23 09:10:00,61.3,60.2,29.69,NE,41,2.0,5.0,96,0.00,,,0.00,Wunderground v.1.15,2013-03-23 14:10:00,
2013-03-23 09:15:00,61.2,60.1,29.69,NE,44,3.0,5.0,96,0.00,,,0.00,Wunderground v.1.15,2013-03-23 14:15:00,
2013-03-23 09:20:00,61.2,60.1,29.69,ENE,57,3.0,5.0,96,0.00,,,0.00,Wunderground v.1.15,2013-03-23 14:20:00,
2013-03-23 09:25:00,61.3,60.2,29.69,NNE,30,3.0,5.0,96,0.00,,,0.00,Wunderground v.1.15,2013-03-23 14:25:00,
2013-03-23 09:30:00,61.4,60.2,29.69,NNE,32,2.0,5.0,96,0.00,,,0.00,Wunderground v.1.15,2013-03-23 14:30:00,
2013-03-23 09:35:00,61.4,60.2,29.69,NE,38,2.0,5.0,96,0.00,,,0.00,Wunderground v.1.15,2013-03-23 14:35:00,
2013-03-23 09:40:00,61.4,60.2,29.70,NE,56,3.0,3.0,96,0.00,,,0.00,Wunderground v.1.15,2013-03-23 14:40:00,
2013-03-23 09:50:00,61.5,60.3,29.70,ENE,64,2.0,5.0,96,0.00,,,0.00,Wunderground v.1.15,2013-03-23 14:50:00,
2013-03-23 09:55:00,61.5,60.3,29.71,NE,55,2.0,5.0,96,0.00,,,0.00,Wunderground v.1.15,2013-03-23 14:55:00,
2013-03-23 10:00:00,61.6,60.4,29.71,NNE,32,1.0,1.0,96,0.00,,,0.00,Wunderground v.1.15,2013-03-23 15:00:00,
2013-03-23 10:05:00,61.5,60.3,29.71,NE,44,1.0,3.0,96,0.00,,,0.00,Wunderground v.1.15,2013-03-23 15:05:00,
2013-03-23 10:10:00,61.5,60.3,29.71,NE,44,1.0,1.0,96,0.00,,,0.00,Wunderground v.1.15,2013-03-23 15:10:00,
2013-03-23 10:15:00,61.5,60.3,29.71,NE,44,1.0,2.0,96,0.00,,,0.00,Wunderground v.1.15,2013-03-23 15:15:00,
2013-03-23 10:20:00,61.5,60.3,29.71,NNE,29,2.0,5.0,96,0.00,,,0.00,Wunderground v.1.15,2013-03-23 15:20:00,
2013-03-23 10:25:00,61.5,60.3,29.72,NE,39,3.0,5.0,96,0.00,,,0.00,Wunderground v.1.15,2013-03-23 15:25:00,
2013-03-23 10:30:00,61.6,60.4,29.72,NE,51,2.0,2.0,96,0.00,,,0.00,Wunderground v.1.15,2013-03-23 15:30:00,
2013-03-23 10:35:00,61.6,60.4,29.72,NE,51,2.0,5.0,96,0.00,,,0.00,Wunderground v.1.15,2013-03-23 15:35:00,
2013-03-23 10:40:00,61.7,60.5,29.72,NE,41,1.0,5.0,96,0.00,,,0.00,Wunderground v.1.15,2013-03-23 15:40:00,
2013-03-23 10:45:00,61.8,60.6,29.72,NE,45,1.0,5.0,96,0.00,,,0.00,Wunderground v.1.15,2013-03-23 15:45:00,
2013-03-23 10:50:00,61.7,60.5,29.72,NE,38,2.0,2.0,96,0.00,,,0.00,Wunderground v.1.15,2013-03-23 15:50:00,
2013-03-23 10:55:00,61.8,60.6,29.72,NE,44,2.0,5.0,96,0.00,,,0.00,Wunderground v.1.15,2013-03-23 15:55:00,
2013-03-23 11:00:00,61.8,60.6,29.72,NE,44,1.0,1.0,96,0.00,,,0.00,Wunderground v.1.15,2013-03-23 16:00:00,
2013-03-23 11:10:00,62.0,60.8,29.71,NE,49,1.0,5.0,96,0.00,,,0.00,Wunderground v.1.15,2013-03-23 16:10:00,
2013-03-23 11:15:00,62.0,60.8,29.71,NE,49,1.0,5.0,96,0.00,,,0.00,Wunderground v.1.15,2013-03-23 16:15:00,
2013-03-23 11:20:00,62.0,60.8,29.71,NE,46,1.0,5.0,96,0.00,,,0.00,Wunderground v.1.15,2013-03-23 16:20:00,
2013-03-23 11:25:00,62.1,60.9,29.71,NE,46,1.0,5.0,96,0.00,,,0.00,Wunderground v.1.15,2013-03-23 16:25:00,
2013-03-23 11:30:00,62.3,61.1,29.71,NE,46,1.0,1.0,96,0.00,,,0.00,Wunderground v.1.15,2013-03-23 16:30:00,
2013-03-23 11:35:00,62.3,61.1,29.71,NE,46,0.0,2.0,96,0.00,,,0.00,Wunderground v.1.15,2013-03-23 16:35:00,
2013-03-23 11:40:00,62.2,61.0,29.71,NE,46,1.0,5.0,96,0.00,,,0.00,Wunderground v.1.15,2013-03-23 16:40:00,
2013-03-23 11:45:00,62.3,61.1,29.71,NE,56,1.0,5.0,96,0.00,,,0.00,Wunderground v.1.15,2013-03-23 16:45:00,
2013-03-23 11:50:00,62.3,61.1,29.71,NE,41,2.0,2.0,96,0.00,,,0.00,Wunderground v.1.15,2013-03-23 16:50:00,
2013-03-23 11:55:00,62.2,61.0,29.70,NE,36,2.0,5.0,96,0.00,,,0.00,Wunderground v.1.15,2013-03-23 16:55:00,
2013-03-23 12:00:00,62.3,61.1,29.70,NNE,25,2.0,5.0,96,0.00,,,0.00,Wunderground v.1.15,2013-03-23 17:00:00,
2013-03-23 12:05:00,62.4,61.2,29.70,NNE,26,1.0,5.0,96,0.00,,,0.00,Wunderground v.1.15,2013-03-23 17:05:00,
2013-03-23 12:10:00,62.5,61.3,29.69,NE,40,1.0,1.0,96,0.00,,,0.00,Wunderground v.1.15,2013-03-23 17:10:00,
2013-03-23 12:20:00,63.0,61.8,29.69,NNE,27,0.0,5.0,96,0.00,,,0.00,Wunderground v.1.15,2013-03-23 17:20:00,
2013-03-23 12:25:00,63.0,61.8,29.69,NE,42,1.0,5.0,96,0.00,,,0.00,Wunderground v.1.15,2013-03-23 17:25:00,
2013-03-23 12:30:00,63.0,61.8,29.69,NNE,23,2.0,5.0,96,0.00,,,0.00,Wunderground v.1.15,2013-03-23 17:30:00,
2013-03-23 12:35:00,63.3,62.1,29.69,NNE,24,1.0,5.0,96,0.00,,,0.00,Wunderground v.1.15,2013-03-23 17:35:00,
2013-03-23 12:40:00,63.5,62.3,29.67,NE,41,1.0,5.0,96,0.00,,,0.00,Wunderground v.1.15,2013-03-23 17:40:00,
2013-03-23 12:45:00,63.7,62.5,29.67,NE,41,1.0,5.0,96,0.00,,,0.00,Wunderground v.1.15,2013-03-23 17:45:00,
2013-03-23 12:50:00,64.0,62.8,29.67,NE,48,1.0,5.0,96,0.00,,,0.00,Wunderground v.1.15,2013-03-23 17:50:00,